FW9539 Weather Reports


time (UTC)temp
F
wind
direction
speed
knots
gust
knots
rain 1hr
in
rain 24hr
in
rain mn
in
humidity
%
barometer
mb
20260901161218 78 180 0.9 2.6 0.00 0.04 0.00 84 1021.8
20260901160216 77 143 2.6 5.2 0.00 0.04 0.00 86 1021.7
20260901155218 76 143 3.5 5.2 0.00 0.04 0.00 85 1021.8
20260901154316 76 160 3.5 5.2 0.00 0.04 0.00 86 1021.8
20260901153316 75 157 1.7 1.7 0.00 0.04 0.00 87 1021.7
20260901151316 72 156 1.7 3.5 0.00 0.04 0.00 88 1021.8
20260901150317 71 162 4.3 5.2 0.00 0.04 0.00 88 1021.8
20260901145317 70 157 4.3 5.2 0.00 0.04 0.00 87 1021.9
20260901144316 70 151 3.5 4.3 0.00 0.04 0.00 88 1021.9
20260901143316 68 154 3.5 4.3 0.00 0.04 0.00 88 1021.7
20260901140334 65 156 2.6 4.3 0.00 0.04 0.00 86 1021.7
20260901134233 64 159 2.6 4.3 0.00 0.04 0.00 87 1021.6
20260901133317 63 154 3.5 5.2 0.00 0.04 0.00 86 1021.6
20260901132317 63 162 3.5 5.2 0.00 0.04 0.00 86 1021.2
20260901131415 63 172 2.6 3.5 0.00 0.04 0.00 86 1021.0
20260901130416 63 157 1.7 2.6 0.00 0.04 0.00 86 1021.0
20260901125516 63 151 2.6 3.5 0.00 0.04 0.00 85 1020.8
20260901124516 63 156 3.5 5.2 0.00 0.04 0.00 85 1020.8
20260901123517 64 160 1.7 2.6 0.00 0.04 0.00 84 1020.7
20260901121615 64 157 1.7 3.5 0.00 0.04 0.00 84 1020.6
20260901115715 64 160 2.6 3.5 0.00 0.04 0.00 84 1020.4
20260901114732 64 139 2.6 3.5 0.00 0.04 0.00 83 1020.7
20260901113816 64 158 1.7 3.5 0.00 0.04 0.00 84 1020.6
20260901112819 65 159 1.7 3.5 0.00 0.04 0.00 84 1020.7
20260901111816 65 167 2.6 4.3 0.00 0.04 0.00 82 1020.6
20260901110915 65 145 2.6 5.2 0.00 0.04 0.00 83 1020.4
20260901105917 64 154 1.7 2.6 0.00 0.04 0.00 83 1020.4
20260901105017 64 157 0.0 0.0 0.00 0.04 0.00 82 1020.4
20260901104116 65 157 0.0 0.0 0.00 0.04 0.00 81 1020.5
20260901103117 65 157 1.7 2.6 0.00 0.04 0.00 82 1020.4
20260901102116 65 151 1.7 3.5 0.00 0.04 0.00 81 1020.4
20260901101115 66 159 3.5 4.3 0.00 0.04 0.00 81 1020.4
20260901100133 65 156 2.6 4.3 0.00 0.04 0.00 80 1020.4
20260901095118 65 146 1.7 3.5 0.00 0.04 0.00 80 1020.2
20260901094117 65 148 2.6 3.5 0.00 0.04 0.00 80 1020.0
20260901093215 66 149 1.7 3.5 0.00 0.04 0.00 80 1020.2
20260901092218 66 147 1.7 2.6 0.00 0.04 0.00 80 1020.4
20260901091216 66 151 2.6 3.5 0.00 0.04 0.00 79 1020.4
20260901085316 66 153 1.7 3.5 0.00 0.04 0.00 79 1020.6
20260901084316 66 156 1.7 3.5 0.00 0.04 0.00 79 1020.4
20260901081315 67 167 1.7 2.6 0.00 0.04 0.00 77 1020.6
20260901080414 67 149 2.6 3.5 0.00 0.04 0.00 77 1020.4
20260901080330 67 155 1.7 3.5 0.00 0.04 0.00 77 1020.4
20260901075416 67 159 2.6 3.5 0.00 0.04 0.00 77 1020.4
20260901073416 67 149 2.6 3.5 0.00 0.04 0.00 77 1020.6
20260901072414 68 138 1.7 2.6 0.00 0.04 0.00 76 1020.7
20260901071417 68 153 1.7 3.5 0.00 0.04 0.00 76 1020.6
20260901070417 68 159 1.7 2.6 0.00 0.04 0.00 76 1020.7
20260901065514 69 180 0.9 1.7 0.00 0.04 0.04 77 1020.6
20260901064514 69 149 1.7 4.3 0.00 0.04 0.04 76 1020.6
20260901063516 69 161 1.7 3.5 0.00 0.04 0.04 77 1020.5
20260901062514 69 159 2.6 3.5 0.00 0.04 0.04 76 1020.7
20260901060613 69 158 1.7 3.5 0.00 0.04 0.04 76 1020.9
20260901055713 69 158 3.5 5.2 0.00 0.04 0.04 76 1020.8
20260901054714 70 152 2.6 4.3 0.00 0.04 0.04 76 1020.9
20260901053813 70 166 2.6 4.3 0.00 0.04 0.04 76 1021.0
20260901052815 70 159 3.5 5.2 0.00 0.04 0.04 76 1020.9
20260901051814 70 161 3.5 6.1 0.00 0.04 0.04 74 1020.9
20260901050814 70 159 1.7 3.5 0.00 0.04 0.04 75 1020.8
20260901045815 70 156 4.3 7.0 0.00 0.04 0.04 75 1020.8
20260901044815 69 153 3.5 4.3 0.00 0.04 0.04 73 1020.9
20260901043814 70 153 2.6 4.3 0.00 0.04 0.04 74 1021.0
20260901042831 70 112 0.0 0.9 0.00 0.04 0.04 73 1021.2
20260901041913 71 157 1.7 1.7 0.00 0.04 0.04 73 1021.0
20260901035915 71 179 0.9 3.5 0.00 0.04 0.04 73 1021.2
20260901033912 71 180 0.9 1.7 0.00 0.04 0.04 72 1020.7
20260901031916 72 157 0.0 0.9 0.00 0.04 0.04 71 1020.3
20260901030914 72 162 1.7 2.6 0.00 0.04 0.04 72 1020.3
20260901025915 72 161 2.6 3.5 0.00 0.04 0.04 72 1020.1
20260901024913 72 168 2.6 4.3 0.00 0.04 0.04 72 1019.8
20260901023914 72 141 2.6 5.2 0.00 0.04 0.04 72 1019.7
20260901023013 73 159 4.3 7.0 0.00 0.04 0.04 71 1019.7
20260901022016 73 162 3.5 7.8 0.00 0.04 0.04 72 1019.7
20260901021112 73 159 4.3 6.1 0.00 0.04 0.04 71 1019.5
20260901020113 73 158 3.5 4.3 0.00 0.04 0.04 72 1019.6
20260901015114 73 155 2.6 4.3 0.00 0.04 0.04 72 1019.4
20260901013211 73 161 5.2 9.6 0.00 0.04 0.04 72 1018.9
20260901012216 74 161 4.3 7.0 0.00 0.04 0.04 72 1018.6
20260901011214 74 161 3.5 5.2 0.00 0.04 0.04 72 1018.6
20260901010214 74 151 2.6 5.2 0.00 0.04 0.04 73 1018.6
20260901005214 75 163 2.6 5.2 0.00 0.04 0.04 73 1018.6
20260901004215 75 163 2.6 5.2 0.00 0.04 0.04 73 1018.8
20260901003214 75 164 3.5 7.0 0.00 0.04 0.04 74 1018.7
20260901002214 76 176 2.6 6.1 0.00 0.04 0.04 74 1018.7
20260901001228 76 166 2.6 4.3 0.00 0.04 0.04 74 1018.6
20260901000233 77 162 3.5 5.2 0.00 0.04 0.04 76 1018.6
20260831235214 78 170 3.5 7.0 0.00 0.04 0.04 76 1018.5
20260831234215 78 167 2.6 4.3 0.00 0.04 0.04 77 1018.5
20260831233312 78 160 3.5 6.1 0.00 0.04 0.04 77 1018.7
20260831232329 77 165 2.6 4.3 0.00 0.04 0.04 78 1018.8
20260831223515 76 164 2.6 6.1 0.00 0.04 0.04 78 1019.4
20260831221514 76 180 1.7 2.6 0.00 0.04 0.04 78 1019.9
20260831215514 71 157 1.7 3.5 0.00 0.04 0.04 76 1020.4
20260831214513 71 112 0.0 0.9 0.00 0.04 0.04 77 1020.5
20260831213514 70 342 0.0 0.9 0.00 0.04 0.04 76 1020.7
20260831212515 70 315 0.0 0.0 0.00 0.04 0.04 75 1020.7
20260831210614 69 315 0.0 0.9 0.00 0.04 0.04 74 1021.5
20260831205612 68 289 1.7 3.5 0.00 0.04 0.04 72 1021.8
20260831204613 68 291 1.7 3.5 0.01 0.04 0.04 73 1022.1
20260831203612 68 310 1.7 2.6 0.01 0.04 0.04 72 1022.5
20260831202612 67 310 3.5 4.3 0.01 0.04 0.04 71 1022.6
20260831201711 67 313 2.6 4.3 0.01 0.04 0.04 70 1022.9
20260831200713 67 312 2.6 6.1 0.03 0.04 0.04 69 1022.9
20260831195811 67 325 4.3 7.0 0.03 0.04 0.04 69 1022.9
20260831193814 68 315 3.5 5.2 0.03 0.03 0.03 68 1023.2
20260831192913 68 320 2.6 4.3 0.03 0.03 0.03 66 1023.3
20260831192012 68 247 0.9 1.7 0.03 0.03 0.03 66 1023.6
20260831191014 68 16 1.7 4.3 0.02 0.02 0.02 66 1023.2
20260831190015 68 356 0.9 1.7 0.01 0.01 0.01 65 1023.7
20260831185112 69 350 0.9 1.7 0.01 0.01 0.01 66 1023.8
20260831184113 69 339 2.6 4.3 0.01 0.01 0.01 65 1023.8
20260831183211 71 324 4.3 7.0 0.00 0.00 0.00 65 1024.0
20260831181213 72 332 6.1 13.0 0.00 0.00 0.00 65 1023.4
20260831175313 73 335 5.2 9.6 0.00 0.00 0.00 65 1022.9
20260831174314 73 313 7.0 13.0 0.00 0.00 0.00 65 1022.6
20260831173411 73 320 7.0 10.4 0.00 0.00 0.00 65 1022.4
20260831171414 75 312 6.1 9.6 0.00 0.00 0.00 67 1022.3
20260831170512 81 315 5.2 10.4 0.00 0.00 0.00 68 1021.7
20260831165511 83 157 0.0 0.0 0.00 0.00 0.00 69 1021.6
20260831164512 82 150 0.9 1.7 0.00 0.00 0.00 68 1021.4
20260831163512 82 78 0.0 0.0 0.00 0.00 0.00 70 1021.5
20260831162513 81 45 0.0 1.7 0.00 0.00 0.00 70 1021.2